[[{"header":{"parameterUnit":"m.s-1","parameterCategory":2,"la1":30.2991,"la2":30.254,"lo1":-89.0895,"lo2":-89.0444,"dy":0.0017,"dx":0.0017,"nx":28,"ny":28,"refTime":"2024-08-15T09:00:00:Z","depth":"0","parameterNumber":2,"parameterNumberName":"U-component_of_CURRENTS"},"data":[0,0,0,0,0,0,0,0,0,0,0,0,0,0,0,0,0,0,0,0,0,0,0,0,0,0,0,0,0,0,0,0,0,0,0,0,0,0,0,0,0,0,0,0,0,0,0,0,0,0,0,0,0,0,0,0,0,0,0.2438,0.2438,0,0.2467,0.2467,0.2467,0.2464,0.2464,0.2463,0.2463,0.2451,0.2452,0.2452,0,0,0,0,0,0,0,0,0,0,0,0,0,0.2415,0.2415,0.2438,0.2438,0.2438,0.2467,0.2467,0.2467,0.2464,0.2464,0.2463,0.2463,0.2451,0.2452,0.2452,0,0,0,0,0,0,0,0,0,0,0,0,0,0.2433,0.2415,0.2438,0.244,0.244,0.2466,0.2467,0.2468,0.2465,0.2464,0.2463,0.2462,0.2451,0.2452,0.2452,0.247,0,0,0.2453,0.2453,0,0,0,0,0,0,0,0,0.2432,0.2434,0.2439,0.2439,0.244,0.246,0.2455,0.2466,0.2465,0.2456,0.2463,0.2462,0.2451,0.2451,0.246,0.2469,0.2469,0.2453,0.2453,0.2453,0.2453,0,0,0,0,0,0,0,0.2431,0.2433,0.245,0.2439,0.244,0.2451,0.2452,0.2457,0.2457,0.2457,0.2456,0.2459,0.2451,0.246,0.246,0.2468,0.2453,0.2453,0.2453,0.2453,0.2533,0.2535,0,0,0,0,0,0,0.2424,0.2432,0.2449,0.2451,0.2433,0.2452,0.2453,0.2455,0.2458,0.2458,0.2459,0.2458,0.246,0.2459,0.2459,0.2517,0.2453,0.2453,0.2454,0.2531,0.2534,0.2536,0,0,0,0,0,0,0.2424,0.2426,0.2448,0.2441,0.2445,0.2452,0.2455,0.2456,0.2468,0.246,0.2459,0.2469,0.2459,0.2459,0.2481,0.2515,0.2454,0.2454,0.2529,0.2532,0.2535,0.261,0,0,0,0,0,0,0.2423,0.2425,0.2431,0.2441,0.2445,0.2477,0.2456,0.2457,0.247,0.2469,0.2469,0.2467,0.2458,0.248,0.2481,0.2514,0.2454,0.2526,0.253,0.2534,0.2605,0.2615,0.2624,0,0,0,0,0,0.2422,0.2435,0.2431,0.2433,0.245,0.2478,0.2482,0.2485,0.2471,0.249,0.249,0.2467,0.2504,0.2482,0.2482,0.2517,0.2525,0.2529,0.2533,0.2601,0.2613,0.2623,0,0,0,0,0,0,0.2437,0.2436,0.2432,0.2445,0.2465,0.2477,0.2493,0.2491,0.2506,0.2504,0.2489,0.2489,0.253,0.2511,0.2487,0.2552,0.2512,0.2516,0.2563,0.2575,0.2584,0.2627,0.2454,0,0,0,0,0,0.244,0.2442,0.2453,0.2467,0.2477,0.2485,0.2496,0.2501,0.2512,0.2518,0.2518,0.2523,0.2549,0.255,0.2569,0.2593,0.2625,0.2617,0.2626,0.2634,0.2672,0.2762,0.2783,0.255,0.255,0.255,0,0,0.245,0.2449,0.2453,0.247,0.2482,0.2512,0.2491,0.2517,0.2546,0.2514,0.2552,0.2562,0.2567,0.2609,0.2623,0.2593,0.2714,0.264,0.2647,0.268,0.2769,0.2792,0.2812,0.2553,0.2552,0.2552,0,0,0.2473,0.2473,0.2484,0.2504,0.2524,0.2537,0.2545,0.2565,0.2579,0.2613,0.2613,0.2655,0.2656,0.2694,0.2705,0.2778,0.2772,0.2762,0.2831,0.2918,0.2938,0.2957,0.3012,0.3035,0.2753,0.2753,0.2753,0,0.2489,0.2502,0.2498,0.2521,0.2545,0.2549,0.2585,0.2607,0.2634,0.2667,0.2633,0.2712,0.2713,0.2796,0.2823,0.2805,0.2835,0.2783,0.2932,0.2951,0.2969,0.3022,0.3046,0.2757,0.2757,0.2756,0.2756,0,0.2522,0.2539,0.2554,0.2581,0.2609,0.2643,0.2672,0.2711,0.2719,0.2744,0.2824,0.2837,0.2891,0.2889,0.2876,0.2999,0.2974,0.2944,0.2906,0.2998,0.3046,0.307,0.2763,0.2762,0.276,0.2759,0,0,0.2541,0.257,0.2574,0.2606,0.2645,0.268,0.274,0.281,0.2875,0.2893,0.2982,0.3029,0.3044,0.3062,0.3055,0.3118,0.326,0.3082,0.3085,0.3142,0.3435,0.3269,0.3278,0.3249,0.3254,0.3257,0.3413,0,0.2573,0.2621,0.2627,0.2699,0.274,0.2774,0.2838,0.2904,0.2953,0.3042,0.3077,0.3153,0.3102,0.3138,0.3201,0.3259,0.3329,0.322,0.3335,0.3339,0.3185,0.3304,0.3046,0.315,0.3436,0.344,0.3443,0,0.2602,0.2636,0.2698,0.2779,0.2801,0.2846,0.2971,0.3029,0.3147,0.3187,0.3266,0.3293,0.3406,0.3339,0.3494,0.342,0.3452,0.3476,0.3481,0.3326,0.3219,0.3108,0.3183,0.3078,0.348,0.3477,0.3474,0,0.2629,0.2689,0.2741,0.2767,0.2857,0.2908,0.2965,0.3079,0.3157,0.3292,0.3366,0.3471,0.3543,0.3612,0.3637,0.3592,0.3788,0.3729,0.3612,0.3599,0.3406,0.3366,0.3399,0.3867,0.3866,0.3866,0.3865,0,0.2665,0.2718,0.2758,0.28,0.2904,0.2941,0.3068,0.3148,0.3267,0.3371,0.3442,0.3535,0.362,0.371,0.372,0.3734,0.3859,0.367,0.3649,0.3418,0.338,0.3296,0.3287,0.3871,0.387,0.3869,0.3868,0,0.2713,0.272,0.2811,0.2893,0.2922,0.3006,0.3123,0.3218,0.3315,0.3456,0.3504,0.364,0.373,0.3779,0.3899,0.383,0.3733,0.3834,0.3534,0.3473,0.3208,0.3211,0.3157,0.3072,0.3746,0.3743,0.3741,0,0.2742,0.2787,0.2887,0.2941,0.2984,0.3085,0.3161,0.3249,0.3327,0.3497,0.3562,0.3694,0.374,0.383,0.373,0.3714,0.3647,0.3483,0.3348,0.3195,0.3187,0.3085,0.3012,0.313,0.3123,0.3117,0.3113,0,0.2843,0.2875,0.2959,0.3046,0.3118,0.3182,0.3266,0.3318,0.3409,0.3495,0.358,0.3628,0.3652,0.3492,0.3445,0.3399,0.3259,0.3356,0.3302,0.2807,0.2603,0.2505,0.3021,0.306,0.3065,0.3069,0.3072,0.3074,0.2941,0.301,0.309,0.3162,0.3228,0.3226,0.3211,0.3271,0.3321,0.3319,0.3462,0.3396,0.3285,0.3142,0.3086,0.2777,0.2888,0.264,0.2693,0.2631,0.2431,0.2808,0.2742,0.2745,0.2748,0.2751,0.2753,0,0.3034,0.3089,0.3184,0.3222,0.3229,0.324,0.3237,0.3145,0.3093,0.3125,0.3108,0.29,0.2704,0.2586,0.2276,0.2129,0.2036,0.2083,0.191,0.1903,0.232,0.2169,0.1846,0.1847,0.1847,0.1847,0.1847,0.1847,0.3097,0.3178,0.3183,0.3173,0.3168,0.3046,0.2973,0.2851,0.2789,0.2585,0.2412,0.2366,0.2277,0.204,0.177,0.1709,0.1607,0.1463,0.1603,0.1904,0.1959,0.2013,0.1867,0.1486,0.1486,0.0998,0.0994,0.0992]},{"header":{"parameterUnit":"m.s-1","parameterCategory":2,"la1":30.2991,"la2":30.254,"lo1":-89.0895,"lo2":-89.0444,"dy":0.0017,"dx":0.0017,"nx":28,"ny":28,"refTime":"2024-08-15T09:00:00:Z","depth":"0","parameterNumber":3,"parameterNumberName":"V-component_of_CURRENTS"},"data":[0,0,0,0,0,0,0,0,0,0,0,0,0,0,0,0,0,0,0,0,0,0,0,0,0,0,0,0,0,0,0,0,0,0,0,0,0,0,0,0,0,0,0,0,0,0,0,0,0,0,0,0,0,0,0,0,0,0,0.0205,0.0205,0,0.0213,0.0213,0.0213,0.0205,0.0204,0.0204,0.0203,0.0227,0.0228,0.0229,0,0,0,0,0,0,0,0,0,0,0,0,0,0.0189,0.019,0.0205,0.0205,0.0205,0.0213,0.0213,0.0214,0.0205,0.0204,0.0204,0.0203,0.0227,0.0228,0.0229,0,0,0,0,0,0,0,0,0,0,0,0,0,0.0198,0.019,0.0205,0.0201,0.0201,0.0213,0.0213,0.0214,0.0205,0.0204,0.0204,0.0203,0.0226,0.0228,0.0229,0.0252,0,0,0.0234,0.0235,0,0,0,0,0,0,0,0,0.0197,0.0198,0.0202,0.0201,0.0201,0.0206,0.0216,0.0227,0.0205,0.0204,0.0203,0.0203,0.0221,0.0223,0.0228,0.0253,0.0254,0.0234,0.0235,0.0236,0.0236,0,0,0,0,0,0,0,0.0197,0.0198,0.0209,0.0202,0.0201,0.0201,0.0202,0.0218,0.0218,0.0204,0.0203,0.0203,0.0221,0.0226,0.0228,0.0254,0.0234,0.0236,0.0237,0.0237,0.032,0.0321,0,0,0,0,0,0,0.0194,0.0198,0.0209,0.021,0.0196,0.0202,0.0202,0.0206,0.0217,0.0218,0.0203,0.0202,0.0224,0.0226,0.0229,0.0292,0.0236,0.0237,0.0238,0.0319,0.032,0.0321,0,0,0,0,0,0,0.0194,0.0195,0.0209,0.0203,0.0204,0.0203,0.0207,0.0207,0.0212,0.0216,0.0217,0.0209,0.0223,0.0227,0.0255,0.0292,0.0238,0.0239,0.0317,0.0319,0.0321,0.0397,0,0,0,0,0,0,0.0193,0.0195,0.0202,0.0203,0.0204,0.0227,0.0207,0.0207,0.0212,0.0211,0.0221,0.0223,0.0223,0.0253,0.0257,0.0293,0.0241,0.0315,0.0318,0.032,0.0392,0.0401,0.0408,0,0,0,0,0,0.0193,0.0208,0.0202,0.0204,0.0212,0.0228,0.023,0.0227,0.0213,0.0227,0.0233,0.0222,0.0271,0.0256,0.026,0.0297,0.0314,0.0317,0.032,0.0389,0.0399,0.0408,0,0,0,0,0,0,0.0205,0.0208,0.0202,0.0217,0.0225,0.0226,0.0239,0.0231,0.0246,0.0245,0.0241,0.0244,0.0284,0.0277,0.026,0.0326,0.029,0.0294,0.0341,0.0351,0.0358,0.0389,0.0242,0,0,0,0,0,0.0211,0.0223,0.0224,0.0238,0.0243,0.024,0.0246,0.0244,0.0253,0.0258,0.0266,0.0276,0.03,0.0313,0.0329,0.0366,0.0353,0.0391,0.0399,0.0405,0.0433,0.0442,0.0454,0.0331,0.0331,0.0331,0,0,0.0217,0.0222,0.0228,0.0242,0.0246,0.0275,0.0243,0.0259,0.029,0.026,0.0307,0.0306,0.0315,0.036,0.0376,0.0359,0.0427,0.0409,0.0415,0.0439,0.0447,0.0459,0.0469,0.0333,0.0332,0.0332,0,0,0.0248,0.0244,0.0269,0.0282,0.0295,0.0301,0.0307,0.0315,0.0326,0.0363,0.0354,0.0381,0.0404,0.043,0.0443,0.0504,0.0468,0.0495,0.0565,0.0574,0.0584,0.0594,0.0566,0.0572,0.05,0.05,0.05,0,0.0258,0.0291,0.028,0.0313,0.0336,0.0317,0.0359,0.0371,0.039,0.0417,0.0388,0.045,0.0449,0.0522,0.0539,0.0526,0.0504,0.0529,0.0585,0.0594,0.0602,0.0572,0.0578,0.0504,0.0504,0.0503,0.0503,0,0.0311,0.034,0.0358,0.0398,0.0421,0.0452,0.0468,0.0496,0.0499,0.0513,0.0573,0.0572,0.0612,0.061,0.0594,0.0659,0.0614,0.0592,0.0563,0.0619,0.0583,0.0588,0.051,0.0508,0.0507,0.0506,0,0,0.0338,0.0387,0.0397,0.0434,0.0471,0.05,0.0557,0.0614,0.0667,0.0672,0.0746,0.0771,0.0759,0.0773,0.0754,0.0761,0.0781,0.0702,0.0701,0.0678,0.077,0.0731,0.0732,0.076,0.0762,0.0764,0.0712,0,0.039,0.0469,0.0482,0.0568,0.0613,0.0628,0.0692,0.0737,0.0766,0.0829,0.0831,0.0887,0.0823,0.0846,0.0845,0.0813,0.0802,0.0796,0.0718,0.0715,0.0678,0.074,0.0738,0.0693,0.0716,0.0717,0.0717,0,0.0449,0.0496,0.0583,0.067,0.0693,0.0741,0.0846,0.0898,0.097,0.0994,0.1035,0.103,0.1065,0.0989,0.096,0.0953,0.0872,0.0824,0.0821,0.0771,0.0688,0.0645,0.07,0.0624,0.0724,0.0724,0.0723,0,0.0491,0.0575,0.065,0.0677,0.0765,0.0817,0.0869,0.095,0.1018,0.11,0.1158,0.1174,0.1203,0.1125,0.1024,0.0991,0.0969,0.0908,0.0791,0.0784,0.0766,0.0756,0.0749,0.0877,0.0877,0.0877,0.0877,0,0.0551,0.0615,0.0673,0.0717,0.0823,0.0864,0.0983,0.1041,0.1135,0.1243,0.1241,0.1327,0.124,0.1212,0.1081,0.0966,0.1008,0.0828,0.0789,0.0787,0.078,0.0698,0.0661,0.0875,0.0875,0.0876,0.0876,0,0.0596,0.063,0.0723,0.0813,0.0845,0.0922,0.1043,0.1131,0.1212,0.1353,0.1388,0.1452,0.1428,0.1309,0.1199,0.1056,0.0885,0.087,0.0858,0.082,0.0627,0.0595,0.054,0.0509,0.0736,0.0735,0.0735,0,0.0631,0.068,0.0784,0.0838,0.0881,0.0985,0.1066,0.1161,0.1257,0.1438,0.1515,0.1552,0.1602,0.1424,0.1193,0.0969,0.0871,0.0794,0.074,0.0646,0.0581,0.054,0.0516,0.0724,0.0723,0.0722,0.0721,0,0.0699,0.0729,0.0799,0.0901,0.0985,0.109,0.1206,0.1292,0.1431,0.1562,0.1722,0.178,0.1644,0.1454,0.1158,0.0996,0.0754,0.0771,0.0697,0.0609,0.0544,0.0485,0.0697,0.0715,0.0716,0.0717,0.0717,0.0717,0.0744,0.08,0.0876,0.0974,0.1068,0.1184,0.1276,0.1415,0.1582,0.1784,0.1837,0.1939,0.167,0.1287,0.1084,0.0694,0.0699,0.0556,0.0531,0.0501,0.0472,0.0658,0.062,0.062,0.062,0.062,0.062,0,0.079,0.0848,0.0944,0.1057,0.1153,0.1196,0.1364,0.1464,0.1659,0.1848,0.198,0.1874,0.1573,0.1229,0.0706,0.0485,0.0412,0.0379,0.0337,0.0327,0.0513,0.0515,0.0426,0.0426,0.0427,0.0427,0.0427,0.0427,0.0817,0.0899,0.0943,0.1093,0.1176,0.1304,0.1396,0.1563,0.1711,0.1883,0.1924,0.194,0.1651,0.0883,0.0407,0.0321,0.0204,0.0157,0.011,0.0248,0.0263,0.0277,0.0271,0.0132,0.0132,-0.0064,-0.0066,-0.0068]}],[{"header":{"parameterUnit":"m.s-1","parameterCategory":2,"la1":30.2991,"la2":30.254,"lo1":-89.0895,"lo2":-89.0444,"dy":0.0017,"dx":0.0017,"nx":28,"ny":28,"refTime":"2024-08-15T09:00:00:Z","depth":"2","parameterNumber":2,"parameterNumberName":"U-component_of_CURRENTS"},"data":[0,0,0,0,0,0,0,0,0,0,0,0,0,0,0,0,0,0,0,0,0,0,0,0,0,0,0,0,0,0,0,0,0,0,0,0,0,0,0,0,0,0,0,0,0,0,0,0,0,0,0,0,0,0,0,0,0,0,0.2072,0.2073,0,0.2077,0.2077,0.2077,0.2069,0.2069,0.2069,0.2069,0.2106,0.2107,0.2108,0,0,0,0,0,0,0,0,0,0,0,0,0,0.2031,0.2032,0.2072,0.2073,0.2073,0.2077,0.2077,0.2077,0.2069,0.2069,0.2069,0.2069,0.2106,0.2107,0.2108,0,0,0,0,0,0,0,0,0,0,0,0,0,0.204,0.2032,0.2072,0.2073,0.2073,0.2077,0.2077,0.2077,0.2069,0.2069,0.2069,0.2069,0.2106,0.2107,0.2108,0.2113,0,0,0.2112,0.2113,0,0,0,0,0,0,0,0,0.2039,0.2041,0.2073,0.2073,0.2074,0.2076,0.2076,0.2092,0.2069,0.2066,0.2069,0.2069,0.2102,0.2104,0.2098,0.2115,0.2116,0.2113,0.2113,0.2114,0.2114,0,0,0,0,0,0,0,0.2039,0.2041,0.207,0.2073,0.2074,0.2065,0.2066,0.2079,0.208,0.2066,0.2067,0.2074,0.2102,0.2096,0.2099,0.2117,0.2113,0.2114,0.2115,0.2115,0.2215,0.2217,0,0,0,0,0,0,0.2048,0.204,0.207,0.2071,0.2061,0.2066,0.2067,0.2072,0.208,0.2082,0.2074,0.2074,0.2094,0.2097,0.21,0.2178,0.2114,0.2115,0.2116,0.2213,0.2215,0.2217,0,0,0,0,0,0,0.2047,0.205,0.207,0.2059,0.2061,0.2067,0.2072,0.2072,0.2085,0.2086,0.2088,0.2089,0.2094,0.2098,0.2132,0.2177,0.2116,0.2117,0.2211,0.2214,0.2216,0.2287,0,0,0,0,0,0,0.2046,0.205,0.2058,0.206,0.2063,0.209,0.2072,0.2072,0.209,0.209,0.21,0.2102,0.2095,0.213,0.2133,0.2177,0.2118,0.2209,0.2212,0.2216,0.2283,0.2292,0.2301,0,0,0,0,0,0.2044,0.2059,0.2058,0.2062,0.2073,0.2091,0.2092,0.2093,0.2091,0.2103,0.2111,0.2103,0.2155,0.2132,0.2136,0.2181,0.2207,0.2211,0.2215,0.2279,0.229,0.23,0,0,0,0,0,0,0.2056,0.206,0.2059,0.2077,0.2091,0.2092,0.2105,0.2106,0.212,0.2122,0.212,0.2124,0.2179,0.2166,0.2141,0.2221,0.2183,0.2188,0.223,0.2241,0.2249,0.2261,0.2119,0,0,0,0,0,0.206,0.2065,0.2077,0.2093,0.2102,0.2106,0.2114,0.2117,0.2129,0.2134,0.2146,0.2162,0.2195,0.2206,0.2229,0.2261,0.2275,0.2295,0.2304,0.2311,0.2324,0.2396,0.2413,0.2231,0.2231,0.2231,0,0,0.2068,0.2074,0.2076,0.2095,0.2103,0.2122,0.2111,0.2132,0.2159,0.2138,0.2182,0.2201,0.2214,0.2261,0.2283,0.2255,0.2368,0.2317,0.2323,0.2332,0.2402,0.242,0.2436,0.2234,0.2234,0.2233,0,0,0.2089,0.2095,0.2107,0.212,0.2141,0.2144,0.2158,0.2174,0.2193,0.2232,0.2238,0.2277,0.2311,0.2332,0.2347,0.2416,0.2423,0.2431,0.2475,0.2545,0.2561,0.2575,0.2605,0.2621,0.2424,0.2424,0.2424,0,0.2102,0.2114,0.2117,0.2138,0.2153,0.216,0.2184,0.2207,0.2236,0.2266,0.2258,0.2345,0.2347,0.2421,0.2442,0.2438,0.2471,0.2432,0.2558,0.2572,0.2585,0.2613,0.263,0.2428,0.2428,0.2427,0.2427,0,0.2129,0.2143,0.2157,0.2178,0.2199,0.222,0.2252,0.2279,0.2303,0.2335,0.2424,0.2439,0.2493,0.2502,0.249,0.2591,0.2582,0.2571,0.2531,0.2608,0.2632,0.2648,0.2434,0.2432,0.2431,0.243,0,0,0.2136,0.2167,0.217,0.2188,0.2218,0.2241,0.2289,0.2342,0.2382,0.2441,0.2521,0.2575,0.2606,0.2625,0.2632,0.2675,0.2778,0.2664,0.2666,0.2693,0.2925,0.2779,0.2782,0.2804,0.2808,0.281,0.29,0,0.2154,0.2189,0.2204,0.2247,0.2267,0.2291,0.2345,0.2399,0.2435,0.2515,0.2584,0.2666,0.2652,0.2688,0.2742,0.2783,0.2828,0.2754,0.2847,0.2849,0.2709,0.2798,0.2542,0.259,0.2916,0.2919,0.2921,0,0.2167,0.2188,0.2227,0.2283,0.2299,0.2334,0.2398,0.2453,0.2558,0.2596,0.2689,0.275,0.2861,0.2824,0.2954,0.2918,0.2934,0.2945,0.2949,0.28,0.2733,0.2568,0.2607,0.2948,0.2945,0.2943,0.2942,0,0.2154,0.2206,0.2235,0.2251,0.2318,0.2353,0.2407,0.2484,0.2547,0.2666,0.2727,0.2858,0.2957,0.3015,0.3053,0.3027,0.3172,0.3133,0.3013,0.3002,0.2793,0.2756,0.3221,0.3221,0.3221,0.3221,0.322,0,0.2145,0.218,0.2236,0.225,0.232,0.2374,0.2453,0.2506,0.2612,0.2706,0.2798,0.2879,0.3019,0.3113,0.3112,0.312,0.3232,0.3042,0.3029,0.2806,0.2771,0.3084,0.3067,0.3224,0.3223,0.3223,0.3222,0,0.2125,0.2154,0.2211,0.2283,0.2311,0.2376,0.2489,0.2532,0.264,0.2759,0.2821,0.2968,0.3069,0.315,0.3247,0.3192,0.3197,0.3162,0.287,0.2819,0.2961,0.2947,0.3045,0.3041,0.3037,0.3034,0.3032,0,0.2131,0.2136,0.2228,0.2262,0.2298,0.2389,0.2432,0.2538,0.2597,0.2783,0.2849,0.2999,0.3041,0.312,0.3065,0.304,0.3139,0.2782,0.2664,0.2972,0.2951,0.2942,0.2933,0.2421,0.2413,0.2408,0.2403,0,0.2128,0.2156,0.2178,0.2274,0.2322,0.2362,0.2452,0.2486,0.2623,0.27,0.28,0.2842,0.292,0.2774,0.2753,0.2696,0.276,0.2655,0.3107,0.2484,0.2385,0.2363,0.2375,0.235,0.2355,0.2359,0.2362,0.2364,0.2122,0.2148,0.2201,0.2252,0.2298,0.2306,0.2321,0.2394,0.2448,0.2505,0.2628,0.2584,0.2597,0.2398,0.2303,0.2238,0.2425,0.2303,0.2321,0.2346,0.2237,0.2136,0.2032,0.2035,0.2038,0.2041,0.2043,0,0.2092,0.2114,0.2185,0.2222,0.2196,0.229,0.2302,0.227,0.2263,0.2291,0.2311,0.2052,0.1922,0.1952,0.1747,0.1703,0.1696,0.1639,0.162,0.1673,0.1721,0.158,0.1201,0.1198,0.1196,0.1194,0,0,0.208,0.2091,0.2106,0.2071,0.2112,0.2097,0.2069,0.2019,0.2012,0.1861,0.1783,0.1851,0.1899,0.1541,0.1466,0.1312,0.1493,0.125,0.1927,0.1962,0.2007,0.2101,0.1943,0,0,0,0,0]},{"header":{"parameterUnit":"m.s-1","parameterCategory":2,"la1":30.2991,"la2":30.254,"lo1":-89.0895,"lo2":-89.0444,"dy":0.0017,"dx":0.0017,"nx":28,"ny":28,"refTime":"2024-08-15T09:00:00:Z","depth":"2","parameterNumber":3,"parameterNumberName":"V-component_of_CURRENTS"},"data":[0,0,0,0,0,0,0,0,0,0,0,0,0,0,0,0,0,0,0,0,0,0,0,0,0,0,0,0,0,0,0,0,0,0,0,0,0,0,0,0,0,0,0,0,0,0,0,0,0,0,0,0,0,0,0,0,0,0,0.0044,0.0044,0,0.0048,0.0048,0.0048,0.0041,0.0041,0.004,0.004,0.0055,0.0056,0.0056,0,0,0,0,0,0,0,0,0,0,0,0,0,0.0026,0.0027,0.0044,0.0044,0.0044,0.0048,0.0048,0.0048,0.0041,0.0041,0.004,0.004,0.0055,0.0056,0.0056,0,0,0,0,0,0,0,0,0,0,0,0,0,0.0032,0.0027,0.0044,0.0041,0.0041,0.0048,0.0048,0.0048,0.0041,0.0041,0.004,0.004,0.0055,0.0056,0.0056,0.0068,0,0,0.0059,0.006,0,0,0,0,0,0,0,0,0.0032,0.0033,0.0042,0.0041,0.0041,0.0044,0.0047,0.0055,0.0041,0.004,0.004,0.004,0.0053,0.0054,0.0055,0.0068,0.0069,0.0059,0.006,0.006,0.006,0,0,0,0,0,0,0,0.0031,0.0032,0.0045,0.0042,0.0042,0.0039,0.0039,0.0048,0.0048,0.0041,0.004,0.0041,0.0053,0.0054,0.0055,0.0069,0.0059,0.006,0.0061,0.0061,0.0103,0.0103,0,0,0,0,0,0,0.0032,0.0032,0.0045,0.0045,0.0036,0.0039,0.004,0.0043,0.0048,0.0048,0.0042,0.0041,0.0052,0.0054,0.0055,0.009,0.006,0.0061,0.0061,0.0102,0.0103,0.0104,0,0,0,0,0,0,0.0032,0.0033,0.0045,0.0039,0.004,0.004,0.0044,0.0043,0.0047,0.0049,0.0049,0.0046,0.0052,0.0054,0.0071,0.009,0.0061,0.0062,0.0101,0.0102,0.0103,0.0147,0,0,0,0,0,0,0.0031,0.0033,0.0039,0.0039,0.004,0.0055,0.0044,0.0043,0.0048,0.0047,0.0053,0.0053,0.0052,0.0069,0.0072,0.0091,0.0063,0.0101,0.0102,0.0103,0.0145,0.0149,0.0153,0,0,0,0,0,0.0031,0.0043,0.0039,0.004,0.0047,0.0056,0.0057,0.0055,0.0049,0.0056,0.0059,0.0053,0.0078,0.0071,0.0073,0.0093,0.01,0.0102,0.0103,0.0143,0.0148,0.0153,0,0,0,0,0,0,0.0038,0.0043,0.0039,0.0051,0.0055,0.0055,0.0063,0.0059,0.0066,0.0067,0.0064,0.0065,0.0088,0.0082,0.0074,0.0107,0.0087,0.0089,0.0117,0.0122,0.0126,0.014,0.0064,0,0,0,0,0,0.0042,0.0052,0.0053,0.0063,0.0066,0.0064,0.0068,0.0067,0.0071,0.0074,0.0078,0.0083,0.0095,0.0101,0.0109,0.0129,0.0117,0.0141,0.0145,0.0149,0.0161,0.0162,0.0168,0.0108,0.0108,0.0108,0,0,0.0045,0.0052,0.0056,0.0066,0.0068,0.0085,0.0066,0.0076,0.0093,0.0076,0.0102,0.01,0.0103,0.0126,0.0135,0.0124,0.0156,0.0151,0.0154,0.0164,0.0164,0.017,0.0176,0.0109,0.0109,0.0108,0,0,0.0065,0.0066,0.0082,0.009,0.0099,0.0101,0.0105,0.0109,0.0115,0.0136,0.0129,0.0135,0.0155,0.0158,0.0163,0.0193,0.0179,0.0197,0.0232,0.0233,0.0238,0.0242,0.022,0.0222,0.0199,0.0199,0.0199,0,0.0069,0.0091,0.0088,0.0109,0.0122,0.0112,0.0135,0.0142,0.0151,0.0164,0.0152,0.0184,0.0172,0.0207,0.0211,0.0204,0.0198,0.0213,0.0239,0.0243,0.0247,0.0223,0.0225,0.0201,0.0201,0.02,0.02,0,0.0103,0.0121,0.0134,0.0158,0.0171,0.019,0.0198,0.0208,0.0211,0.0222,0.0255,0.0244,0.0266,0.0257,0.0243,0.027,0.0254,0.0245,0.0228,0.0256,0.0228,0.0229,0.0204,0.0203,0.0203,0.0202,0,0,0.0117,0.015,0.0157,0.0178,0.02,0.0217,0.0242,0.0269,0.0293,0.0305,0.0352,0.0347,0.0346,0.0351,0.0335,0.0325,0.0324,0.0299,0.0298,0.0279,0.0318,0.0289,0.0287,0.0327,0.0328,0.0328,0.0281,0,0.0147,0.0195,0.0205,0.0254,0.0278,0.0282,0.0313,0.0336,0.0345,0.0388,0.0392,0.0431,0.0385,0.04,0.0387,0.0356,0.0332,0.0337,0.0292,0.029,0.0264,0.0289,0.031,0.027,0.0282,0.0282,0.0282,0,0.0181,0.0209,0.0258,0.0307,0.032,0.0349,0.0391,0.042,0.0463,0.0475,0.0508,0.0521,0.0538,0.0488,0.0447,0.0459,0.0391,0.0346,0.0343,0.0307,0.0265,0.0247,0.0271,0.0284,0.0284,0.0284,0.0284,0,0.0196,0.0251,0.0293,0.031,0.0359,0.0384,0.0417,0.0449,0.0497,0.0543,0.0592,0.0602,0.0643,0.0572,0.049,0.0475,0.0434,0.0399,0.0301,0.0297,0.03,0.0296,0.035,0.0351,0.0351,0.0351,0.0351,0,0.0225,0.0263,0.0306,0.0329,0.0393,0.0419,0.0487,0.0505,0.0577,0.0673,0.0656,0.0731,0.067,0.0651,0.0534,0.0436,0.0468,0.0315,0.0293,0.0313,0.031,0.0315,0.0311,0.0349,0.0349,0.035,0.035,0,0.0232,0.0263,0.0314,0.0371,0.04,0.0447,0.055,0.0609,0.0653,0.078,0.0818,0.0857,0.0832,0.0733,0.0628,0.0511,0.0395,0.0337,0.0354,0.0335,0.0237,0.0237,0.0229,0.0228,0.0227,0.0226,0.0225,0,0.0243,0.0261,0.0337,0.0384,0.0415,0.0495,0.0566,0.0639,0.0727,0.0865,0.0955,0.0975,0.1005,0.0826,0.0634,0.0432,0.0397,0.0293,0.0256,0.0251,0.023,0.0231,0.0231,0.0267,0.0267,0.0267,0.0266,0,0.0248,0.0268,0.0318,0.0411,0.0493,0.0596,0.0715,0.0804,0.0932,0.1035,0.118,0.1208,0.1067,0.0894,0.0611,0.0468,0.0329,0.0279,0.0298,0.0294,0.0283,0.0263,0.0263,0.0264,0.0264,0.0265,0.0265,0.0265,0.0259,0.03,0.0369,0.0471,0.0565,0.0717,0.0817,0.0964,0.1132,0.1296,0.1315,0.1327,0.1133,0.0771,0.0548,0.031,0.0318,0.0209,0.0211,0.0214,0.0226,0.0215,0.0183,0.0183,0.0183,0.0182,0.0182,0,0.0304,0.0362,0.0434,0.0571,0.068,0.0729,0.0938,0.1054,0.1265,0.1349,0.1432,0.1219,0.1022,0.0785,0.0438,0.0222,0.0211,0.0146,0.0184,0.0188,0.0191,0.0203,0.0153,0.0153,0.0152,0.0151,0,0,0.0334,0.0431,0.0484,0.0671,0.0753,0.0919,0.1045,0.1215,0.132,0.1392,0.1367,0.1323,0.1069,0.0798,0.0536,0.0346,0.0307,0.0301,0.0348,0.0429,0.0434,0.0254,0.028,0,0,0,0,0]}],[{"header":{"parameterUnit":"m.s-1","parameterCategory":2,"la1":30.2991,"la2":30.254,"lo1":-89.0895,"lo2":-89.0444,"dy":0.0017,"dx":0.0017,"nx":28,"ny":28,"refTime":"2024-08-15T09:00:00:Z","depth":"4","parameterNumber":2,"parameterNumberName":"U-component_of_CURRENTS"},"data":[0,0,0,0,0,0,0,0,0,0,0,0,0,0,0,0,0,0,0,0,0,0,0,0,0,0,0,0,0,0,0,0,0,0,0,0,0,0,0,0,0,0,0,0,0,0,0,0,0,0,0,0,0,0,0,0,0,0,0.1174,0.1174,0,0.1203,0.1203,0.1203,0.1232,0.1232,0.1233,0.1234,0.1291,0.1292,0.1293,0,0,0,0,0,0,0,0,0,0,0,0,0,0.1131,0.1131,0.1174,0.1174,0.1175,0.1203,0.1203,0.1203,0.1232,0.1232,0.1233,0.1234,0.1291,0.1292,0.1293,0,0,0,0,0,0,0,0,0,0,0,0,0,0.1152,0.1132,0.1174,0.1194,0.1196,0.1203,0.1203,0.1203,0.1232,0.1232,0.1233,0.1234,0.129,0.1292,0.1293,0.1285,0,0,0.1298,0.1299,0,0,0,0,0,0,0,0,0.115,0.1153,0.1191,0.1193,0.1195,0.1216,0.1209,0.1233,0.1231,0.1216,0.1234,0.1235,0.1269,0.1273,0.1273,0.1288,0.129,0.1298,0.1299,0.13,0.13,0,0,0,0,0,0,0,0.1149,0.1152,0.1183,0.1191,0.1194,0.1198,0.1201,0.1213,0.1237,0.1218,0.122,0.1226,0.1271,0.1271,0.1275,0.1291,0.1298,0.1299,0.13,0.1301,0.1395,0.1397,0,0,0,0,0,0,0.1149,0.115,0.1182,0.1184,0.1177,0.1198,0.1202,0.1207,0.1236,0.1241,0.1226,0.1228,0.1268,0.1273,0.1277,0.1344,0.13,0.1301,0.1302,0.1394,0.1395,0.1397,0,0,0,0,0,0,0.1148,0.1152,0.1181,0.117,0.1174,0.1198,0.1203,0.1207,0.1235,0.1242,0.1248,0.1253,0.1269,0.1275,0.1313,0.1343,0.1302,0.1303,0.1392,0.1394,0.1396,0.1429,0,0,0,0,0,0,0.1147,0.1151,0.1166,0.117,0.1175,0.1203,0.1203,0.1207,0.1237,0.1241,0.1267,0.1272,0.127,0.1311,0.1314,0.1345,0.1304,0.139,0.1393,0.1396,0.1426,0.1433,0.1438,0,0,0,0,0,0.1145,0.1156,0.1166,0.1171,0.119,0.1204,0.1207,0.1225,0.1238,0.1253,0.1275,0.1272,0.1333,0.1313,0.1317,0.1348,0.1388,0.1392,0.1395,0.1424,0.1431,0.1438,0,0,0,0,0,0,0.1146,0.116,0.1171,0.1188,0.1205,0.121,0.1228,0.124,0.1267,0.1281,0.1286,0.1292,0.1344,0.1341,0.1319,0.1387,0.1363,0.1367,0.1383,0.1391,0.1396,0.1402,0.1305,0,0,0,0,0,0.1153,0.1169,0.1181,0.1199,0.1209,0.1224,0.1237,0.1252,0.127,0.1284,0.1303,0.1328,0.1356,0.137,0.1394,0.142,0.1429,0.1447,0.1453,0.1458,0.1467,0.1516,0.1527,0.1409,0.1409,0.1409,0,0,0.116,0.1171,0.1182,0.1202,0.1217,0.1231,0.1235,0.1264,0.1281,0.1286,0.1328,0.1356,0.1372,0.141,0.1432,0.1413,0.1493,0.1462,0.1466,0.1473,0.1521,0.1532,0.1542,0.1412,0.1411,0.1411,0,0,0.1172,0.1193,0.1207,0.122,0.1249,0.1257,0.1272,0.1295,0.1315,0.1353,0.1368,0.1412,0.1447,0.1462,0.1473,0.1525,0.1531,0.1543,0.1568,0.1615,0.1625,0.1634,0.1644,0.1653,0.1537,0.1537,0.1537,0,0.1182,0.1196,0.1215,0.1228,0.124,0.1272,0.1284,0.1307,0.1343,0.1365,0.1376,0.1456,0.1469,0.1513,0.1537,0.1538,0.156,0.1535,0.1622,0.1631,0.164,0.1648,0.1658,0.1539,0.1538,0.1538,0.1538,0,0.1192,0.1212,0.1223,0.1248,0.1266,0.1286,0.1312,0.1346,0.1381,0.1406,0.1476,0.1503,0.155,0.1565,0.1567,0.1637,0.1631,0.163,0.16,0.1654,0.1659,0.1669,0.1542,0.1541,0.154,0.154,0,0,0.1181,0.122,0.1225,0.1233,0.1276,0.1283,0.1329,0.1367,0.14,0.146,0.1507,0.1568,0.1605,0.1622,0.1639,0.1677,0.1748,0.1686,0.1688,0.1689,0.1841,0.1711,0.1709,0.1774,0.1776,0.1778,0.1814,0,0.1182,0.12,0.1223,0.1245,0.1253,0.1294,0.1325,0.1373,0.1425,0.1483,0.1541,0.1601,0.1618,0.1654,0.1701,0.1752,0.178,0.1737,0.1796,0.1797,0.167,0.1718,0.1786,0.1821,0.1824,0.1825,0.1826,0,0.1172,0.1187,0.1202,0.1231,0.1238,0.1264,0.1318,0.1352,0.1445,0.1496,0.1582,0.1633,0.172,0.1718,0.1829,0.1811,0.1832,0.1855,0.1857,0.1733,0.1686,0.1763,0.1844,0.1843,0.1841,0.184,0.1839,0,0.1122,0.1165,0.1172,0.1182,0.1226,0.1249,0.1286,0.1366,0.1402,0.1521,0.1581,0.1682,0.1756,0.1817,0.1885,0.1872,0.1991,0.1966,0.1857,0.1846,0.1937,0.1927,0.2025,0.2025,0.2025,0.2025,0.2025,0,0.1085,0.1092,0.1157,0.1147,0.1174,0.1223,0.1266,0.1324,0.1419,0.1478,0.1595,0.166,0.1796,0.1876,0.1907,0.1921,0.2011,0.1869,0.1856,0.1947,0.1938,0.1942,0.1932,0.2027,0.2026,0.2026,0.2026,0,0.1004,0.1054,0.1057,0.1112,0.1142,0.1159,0.1248,0.1274,0.1395,0.1481,0.1528,0.168,0.1789,0.188,0.1983,0.1939,0.196,0.1932,0.2018,0.2008,0.177,0.1762,0.1799,0.1795,0.1791,0.1788,0.1786,0,0.0956,0.0951,0.1008,0.1024,0.1051,0.1106,0.1137,0.1252,0.1294,0.1476,0.1504,0.1656,0.1748,0.1793,0.1889,0.1923,0.1902,0.1883,0.1825,0.1768,0.1752,0.1749,0.1745,0.178,0.178,0.1779,0.1778,0,0.0841,0.087,0.0867,0.0914,0.0954,0.0997,0.1067,0.1095,0.1236,0.136,0.1458,0.1526,0.1639,0.1718,0.1766,0.1783,0.1883,0.1846,0.1852,0.1798,0.1746,0.1733,0.1733,0.1766,0.1767,0.1769,0.1769,0,0.0754,0.0736,0.0752,0.0787,0.0845,0.0884,0.0934,0.1004,0.1072,0.1282,0.1311,0.1484,0.1625,0.1644,0.1687,0.1702,0.1664,0.1595,0.1613,0.1628,0.1556,0.1464,0.1393,0,0,0,0,0,0.0669,0.0641,0.0634,0.0678,0.0731,0.0781,0.0879,0.0939,0.1098,0.1126,0.1219,0.1318,0.1407,0.1485,0.1466,0.1588,0.1656,0.1554,0.1581,0.1699,0.1713,0.1645,0,0,0,0,0,0,0.0619,0.0594,0.0586,0.0583,0.0606,0.0667,0.0735,0.0836,0.0867,0.1035,0.1094,0.1217,0.1324,0.1412,0.1438,0.1458,0.1441,0.1651,0.1647,0.1691,0.1704,0.1715,0.165,0,0,0,0,0]},{"header":{"parameterUnit":"m.s-1","parameterCategory":2,"la1":30.2991,"la2":30.254,"lo1":-89.0895,"lo2":-89.0444,"dy":0.0017,"dx":0.0017,"nx":28,"ny":28,"refTime":"2024-08-15T09:00:00:Z","depth":"4","parameterNumber":3,"parameterNumberName":"V-component_of_CURRENTS"},"data":[0,0,0,0,0,0,0,0,0,0,0,0,0,0,0,0,0,0,0,0,0,0,0,0,0,0,0,0,0,0,0,0,0,0,0,0,0,0,0,0,0,0,0,0,0,0,0,0,0,0,0,0,0,0,0,0,0,0,0.0036,0.0036,0,0.0039,0.0039,0.0039,0.0037,0.0036,0.0036,0.0036,0.0039,0.0039,0.004,0,0,0,0,0,0,0,0,0,0,0,0,0,0.0021,0.0022,0.0036,0.0036,0.0036,0.0039,0.0039,0.0039,0.0037,0.0036,0.0036,0.0036,0.0039,0.0039,0.004,0,0,0,0,0,0,0,0,0,0,0,0,0,0.0026,0.0022,0.0036,0.0035,0.0035,0.0039,0.0039,0.0039,0.0037,0.0036,0.0036,0.0036,0.0039,0.0039,0.004,0.0044,0,0,0.004,0.004,0,0,0,0,0,0,0,0,0.0026,0.0027,0.0035,0.0035,0.0035,0.0037,0.0035,0.0041,0.0037,0.0036,0.0036,0.0036,0.0039,0.0039,0.004,0.0044,0.0044,0.004,0.004,0.0041,0.0041,0,0,0,0,0,0,0,0.0026,0.0027,0.0037,0.0035,0.0035,0.0033,0.0033,0.0036,0.0038,0.0036,0.0036,0.0036,0.0039,0.0039,0.004,0.0044,0.004,0.0041,0.0041,0.0041,0.0037,0.0037,0,0,0,0,0,0,0.0026,0.0026,0.0037,0.0037,0.003,0.0033,0.0034,0.0037,0.0038,0.0038,0.0037,0.0036,0.0039,0.0039,0.004,0.0046,0.0041,0.0041,0.0041,0.0037,0.0037,0.0036,0,0,0,0,0,0,0.0026,0.0027,0.0036,0.0032,0.0033,0.0034,0.0037,0.0037,0.0039,0.0038,0.0038,0.0039,0.0039,0.004,0.0044,0.0046,0.0041,0.0041,0.0037,0.0037,0.0037,0.0057,0,0,0,0,0,0,0.0025,0.0027,0.003,0.0032,0.0033,0.0041,0.0037,0.0037,0.0039,0.0039,0.004,0.004,0.0039,0.0044,0.0044,0.0046,0.0041,0.0038,0.0037,0.0037,0.0057,0.0058,0.0059,0,0,0,0,0,0.0025,0.0032,0.003,0.0031,0.0037,0.0041,0.0042,0.0042,0.004,0.0042,0.0043,0.004,0.0041,0.0044,0.0045,0.0047,0.0038,0.0037,0.0037,0.0057,0.0058,0.0059,0,0,0,0,0,0,0.0027,0.0032,0.0031,0.0038,0.004,0.0041,0.0045,0.0043,0.0046,0.0046,0.0044,0.0044,0.0045,0.0042,0.0046,0.0042,0.0036,0.0036,0.0051,0.0052,0.0053,0.0061,0.0042,0,0,0,0,0,0.0029,0.0036,0.0037,0.0043,0.0044,0.0044,0.0046,0.0046,0.0048,0.0049,0.0049,0.0047,0.0043,0.0045,0.0042,0.0047,0.0038,0.0045,0.0045,0.0046,0.0052,0.0044,0.0045,0.0035,0.0035,0.0035,0,0,0.003,0.0036,0.0038,0.0044,0.0046,0.0053,0.0045,0.005,0.0056,0.0049,0.0058,0.0051,0.0044,0.0046,0.0046,0.0045,0.0042,0.0045,0.0046,0.0052,0.0043,0.0044,0.0045,0.0034,0.0034,0.0034,0,0,0.0039,0.0042,0.005,0.0054,0.0059,0.006,0.0062,0.0064,0.0064,0.0071,0.0063,0.0057,0.0059,0.0053,0.005,0.0052,0.0044,0.0048,0.0064,0.0056,0.0057,0.0058,0.004,0.0039,0.0051,0.0051,0.0051,0,0.004,0.0054,0.0052,0.0063,0.0072,0.0065,0.0078,0.0076,0.0079,0.0084,0.0076,0.0074,0.0062,0.0066,0.0061,0.0054,0.0048,0.0064,0.0058,0.0059,0.0059,0.0041,0.004,0.0052,0.0052,0.0052,0.0052,0,0.0055,0.0068,0.0074,0.0087,0.0094,0.0105,0.0104,0.011,0.0109,0.0107,0.0109,0.0094,0.0095,0.0083,0.0072,0.007,0.0063,0.0059,0.0059,0.0062,0.0042,0.004,0.0053,0.0053,0.0053,0.0052,0,0,0.0058,0.0081,0.0084,0.0104,0.0112,0.0126,0.0133,0.0143,0.0159,0.0146,0.0162,0.0138,0.0129,0.0124,0.0108,0.0095,0.0079,0.0081,0.008,0.0069,0.0058,0.005,0.0048,0.008,0.008,0.008,0.004,0,0.0074,0.0106,0.0111,0.0146,0.0165,0.0168,0.0182,0.0189,0.0188,0.0199,0.0173,0.0179,0.0145,0.015,0.0128,0.0098,0.0078,0.009,0.0052,0.0051,0.0049,0.0047,0.008,0.0039,0.0038,0.0038,0.0038,0,0.009,0.0114,0.015,0.0194,0.0203,0.0221,0.0257,0.0272,0.0271,0.027,0.0262,0.0241,0.0218,0.0189,0.0136,0.0149,0.0103,0.0072,0.007,0.0057,0.0041,0.0036,0.0035,0.0035,0.0035,0.0035,0.0036,0,0.0109,0.0147,0.0183,0.0195,0.0233,0.0256,0.0282,0.0295,0.0323,0.032,0.0335,0.0297,0.0293,0.0233,0.0155,0.0151,0.0093,0.008,0.0027,0.0026,0.0036,0.0036,0.0038,0.0039,0.0039,0.0039,0.0039,0,0.0131,0.0162,0.0199,0.022,0.0282,0.0293,0.0354,0.0368,0.0391,0.0432,0.0381,0.0395,0.0306,0.0258,0.0176,0.0098,0.0108,0.0031,0.0018,0.0044,0.0044,0.0035,0.0035,0.0037,0.0038,0.0038,0.0038,0,0.0149,0.0166,0.022,0.0269,0.0294,0.0344,0.0421,0.046,0.0471,0.0521,0.0525,0.0477,0.0414,0.0313,0.0214,0.0139,0.0056,0.0022,0.0053,0.0043,-0.0014,-0.0012,-0.0035,-0.0036,-0.0036,-0.0037,-0.0037,0,0.0163,0.0187,0.0265,0.031,0.0338,0.0412,0.0465,0.0502,0.0545,0.0574,0.0598,0.0546,0.0499,0.0354,0.0236,0.0081,0.0053,0.0001,-0.0009,-0.001,-0.002,-0.0018,-0.0016,-0.0038,-0.0038,-0.0038,-0.0038,0,0.0195,0.022,0.0271,0.0359,0.0426,0.0508,0.0581,0.0615,0.0657,0.0668,0.0664,0.058,0.0504,0.0366,0.0244,0.013,0.0032,-0.0004,-0.0004,-0.0014,-0.0013,-0.0022,-0.002,-0.004,-0.0039,-0.0039,-0.0039,0,0.023,0.0271,0.0334,0.042,0.05,0.0574,0.0613,0.0662,0.0705,0.0721,0.0717,0.0622,0.0567,0.0392,0.0281,0.0166,0.0132,0.0084,0.0079,0.0079,0.0117,0.0135,0.0147,0,0,0,0,0,0.0267,0.0313,0.0388,0.0479,0.0554,0.0603,0.0679,0.0705,0.0737,0.0745,0.0734,0.0659,0.0493,0.0417,0.0304,0.0259,0.0103,0.012,0.0043,-0.0048,-0.0047,-0.0023,0,0,0,0,0,0,0.0289,0.0361,0.0394,0.0509,0.0572,0.0661,0.0708,0.0731,0.0733,0.074,0.0655,0.0622,0.046,0.0563,0.03,0.0265,0.0197,0.0046,0.0043,-0.0049,-0.0048,-0.0046,-0.0022,0,0,0,0,0]}]]